Preview of NWS' New Version of Forecast
This preview is not operational and should not be used for support decisions.

Regional Weather Roundup (RWR)

Issued by Gray - Portland, ME (GYX)

                            
000
ASUS41 KGYX 192305
RWRGYX
WEATHER ROUNDUP FOR MAINE AND NEW HAMPSHIRE
NATIONAL WEATHER SERVICE GRAY ME
700 PM EDT WED JUN 19 2019

MEZ002-005-006-010-012-015-018-020-021-024-026-027-029-200000-
MAINE
  
CITY           SKY/WX    TMP DP  RH WIND       PRES   REMARKS
PORTLAND       CLOUDY    59  57  93 S6        29.84S FOG              
SANFORD        FAIR      63  60  90 SE6       29.83S                  
WISCASSET      CLOUDY    59  57  93 S6        29.86S FOG              
ROCKLAND       CLOUDY    57  56  96 SW6       29.86S                  
FRYEBURG       FAIR      73  61  65 VRB7      29.80R                  
LEWISTONAUBURN CLOUDY    61  59  93 S13       29.82F                  
AUGUSTA        FAIR      65  59  81 VRB7      29.83S                  
WATERVILLE     FAIR      68  58  70 S9        29.80R                  
BANGOR         PTSUNNY   64  55  72 S9        29.83R                  
GREENVILLE       N/A     68  57  68 S3        29.78F                  
MILLINOCKET    PTSUNNY   75  55  49 VRB3      29.79R                  
HOULTON        FAIR      76  52  43 SW6       29.75S                  
PRESQUE ISLE   PTSUNNY   73  60  63 CALM      29.76S                  
FRENCHVILLE    LGT RAIN  67  50  54 VRB3      29.78R                  
CARIBOU        CLOUDY    73  52  47 N6        29.75S                  
$$

NHZ002-005-008-009-011-012-014-200000-
NEW HAMPSHIRE
  
CITY           SKY/WX    TMP DP  RH WIND       PRES   REMARKS
PORTSMOUTH     PTSUNNY   63  60  90 SE12      29.80F                  
ROCHESTER      FAIR      64  59  83 SE8       29.81F                  
NASHUA         PTSUNNY   75  67  76 SE9       29.80S                  
MANCHESTER     CLOUDY    75  64  68 SE13      29.78S                  
CONCORD        CLOUDY    74  64  71 SE6       29.78F                  
LACONIA        FAIR      73  65  75 VRB6      29.79S                  
PLYMOUTH       PTSUNNY   75  64  67 SE6       29.77S                  
BERLIN         FAIR      73  60  63 VRB5      29.77F                  
WHITEFIELD     LGT RAIN  70  62  76 CALM      29.76F                  
JAFFREY        CLOUDY    74  62  66 S9        29.82S                  
KEENE          CLOUDY    74  64  71 S6        29.79R                  
LEBANON        FAIR      77  62  59 S8        29.76R                  
MT WASHINGTON  FOG       50  50 100 SW20        N/A  VSB 1/16         
$$

VTZ005-007-008-200000-
VERMONT
  
CITY           SKY/WX    TMP DP  RH WIND       PRES   REMARKS
ST JOHNSBURY     N/A     72  68  87 MISG      29.73S                  
MONTPELIER     FAIR      69  65  86 CALM      29.80R                  
BURLINGTON     PTSUNNY   72  65  78 S9        29.72S                  
$$

MAZ007-012-024-CTZ003-RIZ002-NYZ038-NYZ072-200000-
SOUTHERN NEW ENGLAND AND NY
  
CITY           SKY/WX    TMP DP  RH WIND       PRES   REMARKS
BOSTON         PTSUNNY   69  62  78 SE8       29.81S                  
WORCESTER      PTSUNNY   70  64  81 S9        29.83S                  
NANTUCKET      CLOUDY    59  57  93 SE9       29.85F                  
PROVIDENCE     CLOUDY    67  62  84 S9        29.83F                  
HARTFORD       PTSUNNY   73  64  73 S9        29.79F                  
ALBANY         PTSUNNY   76  63  64 S10       29.75S                  
NEW YORK CITY  CLOUDY    68  66  93 E7        29.77F FOG              
$$

ANZ081-ANZ082-ANZ150-NHZ014-MEZ023>029-200000-
COASTAL MARINE OBSERVATIONS
  
STATION/POSITION TIME  TEMP    WIND        PRES    WAVE
                       AIR SEA DIR/SP/G            HT/PER
                 (UTC) (F)     (DEG/KT/KT) (MB)    (FT/S)
ISLE OF SHOALS   2200   59     140/ 14/ 14 1009.7R
JEFFREYS LEDGE   2208      58                N/A     2/12
CASHES LEDGE BUO 2250   56 55  170/  6/  6 1011.7S   2/14
GEORGES BANK BUO 2250   52 51  350/  6/  8 1011.8R   4/ 7
$$

.............KEY..............
   WCI - WIND CHILL
   TC  - TEMPERATURE IN CELSIUS
   VSB - VISIBILITY IN MILES
   HX  - HEAT INDEX
   FAIR- INDICATES FEW OR NO CLOUDS BELOW 12,000 FT, WITH NO 
         SIGNIFICANT WEATHER AND/OR OBSTRUCTIONS TO VISIBILITY.